| time (UTC) | temp C | wind direction | speed KPH | gust KPH | rain 1hr cm | rain 24hr cm | rain mn cm | humidity % | barometer mb |
| 20260508075530 | 0 | 0.0 | 0.0 | 0.00 | 0.00 | 0.00 | 99 | 1009.3 | |
| 20260508074546 | 0 | 0.0 | 0.0 | 0.00 | 0.00 | 0.00 | 99 | 1009.4 | |
| 20260508073523 | 0 | 0.0 | 0.0 | 0.00 | 0.00 | 0.00 | 99 | 1009.4 | |
| 20260508072519 | 0 | 0.0 | 0.0 | 0.00 | 0.00 | 0.00 | 99 | 1009.3 | |
| 20260508071535 | 0 | 0.0 | 0.0 | 0.00 | 0.00 | 0.00 | 99 | 1009.3 | |
| 20260508070531 | 0 | 0.0 | 0.0 | 0.00 | 0.00 | 0.00 | 99 | 1009.3 | |
| 20260508065527 | 0 | 0.0 | 0.0 | 0.00 | 0.00 | 0.00 | 99 | 1009.5 | |
| 20260508064522 | 0 | 0.0 | 0.0 | 0.00 | 0.00 | 0.00 | 99 | 1009.6 | |
| 20260508063518 | 0 | 0.0 | 0.0 | 0.00 | 0.00 | 0.00 | 99 | 1009.3 | |
| 20260508062555 | 0 | 0.0 | 0.0 | 0.00 | 0.00 | 0.00 | 99 | 1009.4 | |
| 20260508061531 | 0 | 0.0 | 0.0 | 0.00 | 0.00 | 0.00 | 99 | 1009.5 | |
| 20260508060527 | 0 | 0.0 | 0.0 | 0.00 | 0.00 | 0.00 | 99 | 1009.4 | |
| 20260508055524 | 0 | 0.0 | 0.0 | 0.00 | 0.00 | 0.00 | 99 | 1009.5 | |
| 20260508054520 | 0 | 0.0 | 0.0 | 0.00 | 0.00 | 0.00 | 98 | 1009.6 | |
| 20260508053516 | 0 | 206 | 1.6 | 3.2 | 0.00 | 0.00 | 0.00 | 98 | 1009.6 |
| 20260508052532 | 0 | 0.0 | 0.0 | 0.00 | 0.00 | 0.00 | 98 | 1009.7 | |
| 20260508051609 | 0 | 0.0 | 0.0 | 0.00 | 0.00 | 0.00 | 97 | 1009.6 | |
| 20260508050524 | 0 | 0.0 | 0.0 | 0.00 | 0.00 | 0.00 | 97 | 1009.5 | |
| 20260508045528 | 0 | 0.0 | 0.0 | 0.00 | 0.00 | 0.00 | 97 | 1009.4 | |
| 20260508044524 | 0 | 0.0 | 0.0 | 0.00 | 0.00 | 0.00 | 96 | 1009.6 | |
| 20260508043520 | 0 | 273 | 1.6 | 3.2 | 0.00 | 0.00 | 0.00 | 96 | 1009.5 |
| 20260508042517 | 1 | 208 | 1.6 | 3.2 | 0.00 | 0.00 | 0.00 | 96 | 1009.6 |
| 20260508041533 | 1 | 222 | 3.2 | 4.8 | 0.00 | 0.00 | 0.00 | 96 | 1009.8 |
| 20260508040529 | 1 | 224 | 3.2 | 3.2 | 0.00 | 0.00 | 0.00 | 95 | 1009.7 |
| 20260508035524 | 1 | 227 | 3.2 | 4.8 | 0.00 | 0.00 | 0.00 | 95 | 1009.6 |
| 20260508034521 | 1 | 219 | 4.8 | 4.8 | 0.00 | 0.00 | 0.00 | 94 | 1009.6 |
| 20260508033517 | 1 | 232 | 3.2 | 6.4 | 0.00 | 0.00 | 0.00 | 93 | 1009.7 |
| 20260508032532 | 2 | 217 | 4.8 | 4.8 | 0.00 | 0.00 | 0.00 | 93 | 1009.7 |
| 20260508031528 | 2 | 200 | 4.8 | 4.8 | 0.00 | 0.00 | 0.00 | 92 | 1009.6 |
| 20260508030524 | 2 | 210 | 4.8 | 6.4 | 0.00 | 0.00 | 0.00 | 91 | 1009.5 |
| 20260508025520 | 2 | 214 | 3.2 | 4.8 | 0.00 | 0.00 | 0.00 | 91 | 1009.6 |
| 20260508024516 | 2 | 225 | 4.8 | 6.4 | 0.00 | 0.00 | 0.00 | 90 | 1009.6 |
| 20260508023532 | 3 | 228 | 4.8 | 6.4 | 0.00 | 0.00 | 0.00 | 88 | 1009.6 |
| 20260508022528 | 3 | 214 | 4.8 | 6.4 | 0.00 | 0.00 | 0.00 | 88 | 1009.8 |
| 20260508021542 | 3 | 221 | 4.8 | 6.4 | 0.00 | 0.00 | 0.00 | 86 | 1009.5 |
| 20260508020518 | 3 | 232 | 4.8 | 6.4 | 0.00 | 0.00 | 0.00 | 84 | 1009.5 |
| 20260508015534 | 4 | 229 | 3.2 | 4.8 | 0.00 | 0.00 | 0.00 | 84 | 1009.4 |
| 20260508014530 | 5 | 229 | 3.2 | 4.8 | 0.00 | 0.03 | 0.00 | 81 | 1009.3 |
| 20260508013526 | 5 | 218 | 4.8 | 6.4 | 0.00 | 0.03 | 0.00 | 79 | 1009.2 |
| 20260508012542 | 5 | 219 | 3.2 | 4.8 | 0.00 | 0.05 | 0.00 | 78 | 1009.0 |
| 20260508011518 | 6 | 222 | 3.2 | 4.8 | 0.00 | 0.05 | 0.00 | 73 | 1009.1 |
| 20260508010535 | 6 | 262 | 3.2 | 4.8 | 0.00 | 0.08 | 0.00 | 71 | 1009.0 |
| 20260508005531 | 6 | 265 | 1.6 | 3.2 | 0.00 | 0.08 | 0.00 | 66 | 1008.9 |
| 20260508004527 | 6 | 268 | 0.0 | 3.2 | 0.00 | 0.10 | 0.00 | 65 | 1008.9 |
| 20260508003523 | 8 | 350 | 1.6 | 4.8 | 0.00 | 0.13 | 0.00 | 60 | 1008.5 |
| 20260508002519 | 8 | 328 | 1.6 | 1.6 | 0.00 | 0.13 | 0.00 | 57 | 1008.5 |
| 20260508001535 | 10 | 301 | 1.6 | 3.2 | 0.00 | 0.13 | 0.00 | 53 | 1008.3 |
| 20260508000611 | 10 | 337 | 4.8 | 11.3 | 0.00 | 0.13 | 0.00 | 48 | 1008.2 |
| 20260507235527 | 10 | 319 | 3.2 | 6.4 | 0.00 | 0.15 | 0.00 | 48 | 1008.1 |
| 20260507234522 | 11 | 16 | 3.2 | 6.4 | 0.00 | 0.20 | 0.00 | 47 | 1008.0 |
| 20260507233539 | 11 | 329 | 3.2 | 6.4 | 0.00 | 0.25 | 0.00 | 47 | 1007.9 |
| 20260507232535 | 11 | 347 | 3.2 | 11.3 | 0.00 | 0.28 | 0.00 | 45 | 1007.8 |
| 20260507231532 | 12 | 342 | 4.8 | 11.3 | 0.00 | 0.28 | 0.00 | 44 | 1007.7 |
| 20260507230529 | 12 | 322 | 4.8 | 14.5 | 0.00 | 0.30 | 0.00 | 44 | 1007.7 |
| 20260507225525 | 12 | 279 | 9.7 | 17.7 | 0.00 | 0.30 | 0.00 | 43 | 1007.6 |
| 20260507224521 | 12 | 307 | 6.4 | 11.3 | 0.00 | 0.30 | 0.00 | 42 | 1007.7 |
| 20260507223537 | 12 | 284 | 4.8 | 11.3 | 0.00 | 0.33 | 0.00 | 43 | 1007.7 |
| 20260507222533 | 12 | 297 | 6.4 | 11.3 | 0.00 | 0.36 | 0.00 | 43 | 1007.7 |
| 20260507221529 | 12 | 263 | 4.8 | 11.3 | 0.00 | 0.36 | 0.00 | 43 | 1007.6 |
| 20260507220525 | 12 | 294 | 3.2 | 6.4 | 0.00 | 0.38 | 0.00 | 43 | 1007.7 |
| 20260507215521 | 12 | 323 | 6.4 | 16.1 | 0.00 | 0.38 | 0.00 | 42 | 1007.5 |
| 20260507214517 | 13 | 345 | 6.4 | 16.1 | 0.00 | 0.38 | 0.00 | 42 | 1007.6 |
| 20260507213533 | 13 | 305 | 4.8 | 11.3 | 0.00 | 0.38 | 0.00 | 41 | 1007.4 |
| 20260507212529 | 13 | 307 | 8.0 | 14.5 | 0.00 | 0.41 | 0.00 | 42 | 1007.4 |
| 20260507211525 | 13 | 273 | 9.7 | 25.7 | 0.00 | 0.43 | 0.00 | 43 | 1007.4 |
| 20260507210521 | 13 | 301 | 8.0 | 20.9 | 0.00 | 0.43 | 0.00 | 42 | 1007.4 |
| 20260507205517 | 12 | 259 | 16.1 | 22.5 | 0.00 | 0.46 | 0.00 | 42 | 1007.3 |
| 20260507204533 | 12 | 251 | 12.9 | 24.1 | 0.00 | 0.46 | 0.00 | 42 | 1007.4 |
| 20260507203529 | 12 | 279 | 16.1 | 25.7 | 0.00 | 0.46 | 0.00 | 43 | 1007.2 |
| 20260507202605 | 13 | 276 | 9.7 | 17.7 | 0.00 | 0.46 | 0.00 | 43 | 1007.3 |
| 20260507201521 | 13 | 266 | 11.3 | 25.7 | 0.00 | 0.46 | 0.00 | 43 | 1007.4 |
| 20260507200517 | 12 | 289 | 12.9 | 29.0 | 0.00 | 0.48 | 0.00 | 45 | 1007.4 |
| 20260507195533 | 12 | 290 | 12.9 | 20.9 | 0.00 | 0.48 | 0.00 | 44 | 1007.7 |
| 20260507194550 | 12 | 290 | 8.0 | 16.1 | 0.00 | 0.51 | 0.00 | 45 | 1007.8 |
| 20260507193525 | 12 | 276 | 9.7 | 24.1 | 0.00 | 0.58 | 0.00 | 45 | 1007.7 |
| 20260507192521 | 13 | 277 | 16.1 | 29.0 | 0.00 | 0.61 | 0.00 | 44 | 1007.8 |
| 20260507191518 | 12 | 248 | 9.7 | 14.5 | 0.00 | 0.66 | 0.00 | 45 | 1008.0 |
| 20260507190534 | 12 | 268 | 9.7 | 16.1 | 0.00 | 0.74 | 0.00 | 46 | 1008.1 |
| 20260507185531 | 12 | 266 | 14.5 | 25.7 | 0.00 | 0.81 | 0.00 | 46 | 1008.2 |
| 20260507184526 | 12 | 290 | 14.5 | 24.1 | 0.00 | 0.91 | 0.00 | 45 | 1008.3 |
| 20260507183523 | 12 | 304 | 12.9 | 25.7 | 0.00 | 0.99 | 0.00 | 45 | 1008.5 |
| 20260507182519 | 13 | 307 | 14.5 | 27.4 | 0.00 | 1.04 | 0.00 | 44 | 1008.5 |
| 20260507181535 | 12 | 275 | 12.9 | 22.5 | 0.00 | 1.12 | 0.00 | 45 | 1008.5 |
| 20260507180530 | 12 | 311 | 9.7 | 22.5 | 0.00 | 1.24 | 0.00 | 46 | 1008.5 |
| 20260507175526 | 12 | 265 | 12.9 | 25.7 | 0.00 | 1.35 | 0.00 | 47 | 1008.5 |
| 20260507174542 | 12 | 299 | 11.3 | 22.5 | 0.00 | 1.42 | 0.00 | 46 | 1008.6 |
| 20260507173518 | 13 | 284 | 9.7 | 17.7 | 0.00 | 1.60 | 0.00 | 46 | 1008.5 |
| 20260507172533 | 12 | 273 | 12.9 | 20.9 | 0.00 | 1.75 | 0.00 | 47 | 1008.6 |
| 20260507171549 | 12 | 275 | 11.3 | 17.7 | 0.00 | 1.80 | 0.00 | 46 | 1008.6 |
| 20260507170525 | 12 | 282 | 14.5 | 30.6 | 0.00 | 1.88 | 0.00 | 46 | 1008.7 |
| 20260507165520 | 12 | 284 | 16.1 | 33.8 | 0.00 | 1.93 | 0.00 | 45 | 1008.9 |
| 20260507164517 | 12 | 332 | 9.7 | 20.9 | 0.00 | 1.98 | 0.00 | 46 | 1008.9 |
| 20260507163533 | 12 | 276 | 12.9 | 24.1 | 0.00 | 2.06 | 0.00 | 45 | 1009.2 |
| 20260507162529 | 12 | 287 | 12.9 | 24.1 | 0.00 | 2.13 | 0.00 | 47 | 1009.6 |
| 20260507161525 | 11 | 287 | 12.9 | 29.0 | 0.00 | 2.18 | 0.00 | 46 | 1009.7 |
| 20260507160522 | 11 | 293 | 11.3 | 22.5 | 0.00 | 2.29 | 0.00 | 49 | 1009.6 |
| 20260507155518 | 10 | 335 | 8.0 | 20.9 | 0.00 | 2.34 | 0.00 | 50 | 1009.8 |
| 20260507154534 | 10 | 336 | 8.0 | 14.5 | 0.00 | 2.41 | 0.00 | 52 | 1009.9 |
| 20260507153529 | 11 | 287 | 8.0 | 24.1 | 0.00 | 2.57 | 0.00 | 50 | 1010.1 |
| 20260507152526 | 11 | 307 | 3.2 | 11.3 | 0.00 | 2.67 | 0.00 | 56 | 1010.2 |
| 20260507151522 | 10 | 242 | 4.8 | 9.7 | 0.00 | 2.74 | 0.00 | 52 | 1010.3 |
| 20260507150519 | 10 | 270 | 9.7 | 20.9 | 0.00 | 2.84 | 0.00 | 55 | 1010.2 |
| 20260507145535 | 10 | 279 | 6.4 | 14.5 | 0.00 | 2.92 | 0.00 | 55 | 1010.3 |
| 20260507144551 | 10 | 13 | 8.0 | 24.1 | 0.00 | 3.00 | 0.00 | 56 | 1010.4 |
| 20260507143527 | 10 | 330 | 8.0 | 16.1 | 0.00 | 3.12 | 0.00 | 55 | 1010.2 |
| 20260507142544 | 9 | 271 | 9.7 | 20.9 | 0.00 | 3.20 | 0.00 | 56 | 1010.4 |
| 20260507141520 | 9 | 332 | 14.5 | 25.7 | 0.00 | 3.30 | 0.00 | 59 | 1010.5 |
| 20260507140536 | 9 | 303 | 8.0 | 14.5 | 0.00 | 3.35 | 0.00 | 63 | 1010.6 |
| 20260507135532 | 9 | 299 | 9.7 | 16.1 | 0.00 | 3.40 | 0.00 | 65 | 1010.5 |
| 20260507134528 | 8 | 280 | 9.7 | 17.7 | 0.00 | 3.45 | 0.00 | 67 | 1010.4 |
| 20260507133523 | 9 | 209 | 3.2 | 12.9 | 0.00 | 3.51 | 0.00 | 69 | 1010.4 |
| 20260507132539 | 8 | 31 | 4.8 | 9.7 | 0.00 | 3.56 | 0.00 | 72 | 1010.6 |
| 20260507131516 | 8 | 215 | 6.4 | 14.5 | 0.00 | 3.61 | 0.00 | 72 | 1010.5 |
| 20260507130532 | 8 | 259 | 6.4 | 11.3 | 0.00 | 3.66 | 0.00 | 74 | 1010.6 |
| 20260507125528 | 8 | 259 | 9.7 | 16.1 | 0.00 | 3.71 | 0.00 | 77 | 1010.4 |
| 20260507124544 | 8 | 305 | 6.4 | 12.9 | 0.00 | 3.76 | 0.00 | 75 | 1010.4 |
| 20260507123540 | 7 | 279 | 11.3 | 16.1 | 0.00 | 3.78 | 0.00 | 73 | 1010.5 |
| 20260507122516 | 8 | 257 | 8.0 | 12.9 | 0.00 | 3.84 | 0.00 | 76 | 1010.4 |
| 20260507121531 | 7 | 275 | 11.3 | 16.1 | 0.00 | 3.86 | 0.00 | 79 | 1010.3 |
| 20260507120547 | 7 | 275 | 11.3 | 16.1 | 0.00 | 3.86 | 0.00 | 79 | 1010.3 |
| 20260507115524 | 7 | 283 | 12.9 | 22.5 | 0.00 | 3.86 | 0.00 | 80 | 1009.9 |
| 20260507114520 | 7 | 275 | 11.3 | 17.7 | 0.00 | 3.86 | 0.00 | 87 | 1009.9 |
| 20260507113536 | 6 | 239 | 4.8 | 11.3 | 0.00 | 3.86 | 0.00 | 99 | 1009.7 |
| 20260507112531 | 6 | 253 | 3.2 | 6.4 | 0.00 | 3.86 | 0.00 | 99 | 1009.7 |
| 20260507111527 | 6 | 250 | 4.8 | 6.4 | 0.00 | 3.86 | 0.00 | 99 | 1009.6 |
| 20260507110523 | 6 | 239 | 1.6 | 9.7 | 0.00 | 3.86 | 0.00 | 99 | 1009.6 |
| 20260507105520 | 6 | 258 | 0.0 | 1.6 | 0.00 | 3.89 | 0.00 | 99 | 1009.5 |
| 20260507104515 | 5 | 237 | 1.6 | 6.4 | 0.00 | 3.89 | 0.00 | 99 | 1009.3 |
| 20260507103532 | 6 | 256 | 6.4 | 14.5 | 0.00 | 3.89 | 0.00 | 99 | 1009.2 |
| 20260507102527 | 6 | 0.0 | 0.0 | 0.00 | 3.89 | 0.00 | 99 | 1009.2 | |
| 20260507101523 | 6 | 0.0 | 0.0 | 0.00 | 3.89 | 0.00 | 99 | 1009.1 | |
| 20260507100519 | 6 | 0.0 | 0.0 | 0.00 | 3.89 | 0.00 | 99 | 1009.0 | |
| 20260507095535 | 6 | 0.0 | 0.0 | 0.00 | 3.89 | 0.00 | 99 | 1008.9 | |
| 20260507094531 | 6 | 0.0 | 0.0 | 0.00 | 3.89 | 0.00 | 99 | 1008.8 | |
| 20260507093527 | 6 | 0.0 | 0.0 | 0.00 | 3.89 | 0.00 | 99 | 1008.7 | |
| 20260507092522 | 6 | 0.0 | 0.0 | 0.00 | 3.89 | 0.00 | 99 | 1008.9 | |
| 20260507091539 | 6 | 0.0 | 0.0 | 0.00 | 3.89 | 0.00 | 99 | 1009.0 | |
| 20260507090535 | 6 | 0.0 | 0.0 | 0.00 | 3.89 | 0.00 | 99 | 1008.9 | |
| 20260507085611 | 6 | 0.0 | 0.0 | 0.00 | 3.89 | 0.00 | 99 | 1009.1 | |
| 20260507084527 | 6 | 0.0 | 0.0 | 0.00 | 3.89 | 0.00 | 99 | 1009.0 | |
| 20260507083523 | 6 | 0.0 | 0.0 | 0.00 | 3.89 | 0.00 | 99 | 1009.2 | |
| 20260507082539 | 6 | 0.0 | 0.0 | 0.00 | 3.89 | 0.00 | 99 | 1009.5 | |
| 20260507081516 | 6 | 0.0 | 0.0 | 0.00 | 3.89 | 0.00 | 99 | 1009.1 | |
| 20260507080532 | 6 | 0.0 | 0.0 | 0.00 | 3.89 | 0.00 | 99 | 1009.1 |